Boston, MA

10:15 AM EDT on October 01, 2016 (GMT -0400)
Logan International

Weather History for KBOS - October, 2013

Change the Weather History Date:

Monday, October 28, 2013

  Actual Average Record
Temperature  
Mean Temperature 50 °F 50 °F  
Max Temperature 60 °F 57 °F 81 °F (1927)
Min Temperature 39 °F 43 °F 28 °F (1936)
Degree Days  
Heating Degree Days 15 15  
Month to date heating degree days 212 304  
Since 1 July heating degree days 297 401  
Cooling Degree Days 0 0  
Month to date cooling degree days 16 6  
Year to date cooling degree days 919 746  
Moisture  
Dew Point 28 °F    
Average Humidity 50    
Maximum Humidity 70    
Minimum Humidity 29    
Precipitation  
Precipitation 0.00 in 0.13 in 2.02 in (2006)
Month to date precipitation 0.53 3.57  
Year to date precipitation 32.94 35.63  
Sea Level Pressure  
Sea Level Pressure 30.17 in    
Wind  
Wind Speed 12 mph (West)    
Max Wind Speed 24 mph    
Max Gust Speed 33 mph    
Visibility 10 miles    
Events      
T = Trace of Precipitation, MM = Missing Value Source: NWS Daily Summary

Daily Weather History Graph

Daily Weather History Graph

Search for Another Location

Airport or City:

Trip Planner

Search our weather history database for the weather conditions in past years. The results will help you decide how hot, cold, wet, or windy it might be!

Date:

Astronomy

Oct. 28, 2013 Rise Set
Actual Time 7:12 AM EDT 5:42 PM EDT
Civil Twilight 6:43 AM EDT 6:11 PM EDT
Nautical Twilight 6:10 AM EDT 6:44 PM EDT
Astronomical Twilight 5:38 AM EDT 7:16 PM EDT
Moon 12:55 AM EDT (10/28) 2:28 PM EDT (10/28)
Length of Visible Light 11h 27m
Length of Day
10h 29m
Waning Crescent, 34% of the Moon is Illuminated
Oct 28
Waning Crescent
Nov 3
New
Nov 10
First Quarter
Nov 17
Full
Nov 25
Last Quarter

Hourly Weather History & Observations

Time (EDT) Temp. Windchill Dew Point Humidity Pressure Visibility Wind Dir Wind Speed Gust Speed Precip Events Conditions
12:54 AM 45.0 °F 40.1 °F 28.9 °F 53% 30.08 in 10.0 mi West 9.2 mph - N/A   Clear
1:54 AM 41.0 °F 35.2 °F 28.9 °F 62% 30.09 in 10.0 mi SW 9.2 mph - N/A   Clear
2:54 AM 44.1 °F 39.0 °F 30.0 °F 58% 30.09 in 10.0 mi West 9.2 mph - N/A   Clear
3:54 AM 45.0 °F 42.6 °F 30.0 °F 56% 30.09 in 10.0 mi West 4.6 mph - N/A   Clear
4:54 AM 41.0 °F 35.8 °F 30.0 °F 65% 30.11 in 10.0 mi WSW 8.1 mph - N/A   Clear
5:54 AM 43.0 °F 38.2 °F 30.0 °F 60% 30.10 in 10.0 mi West 8.1 mph - N/A   Clear
6:54 AM 39.9 °F 33.9 °F 30.9 °F 70% 30.12 in 10.0 mi SW 9.2 mph - N/A   Partly Cloudy
7:54 AM 41.0 °F 34.7 °F 30.9 °F 67% 30.13 in 10.0 mi SW 10.4 mph - N/A   Scattered Clouds
8:54 AM 44.1 °F 38.6 °F 30.9 °F 60% 30.14 in 10.0 mi SW 10.4 mph - N/A   Partly Cloudy
9:54 AM 50.0 °F - 28.9 °F 44% 30.14 in 10.0 mi WSW 15.0 mph - N/A   Partly Cloudy
10:54 AM 53.1 °F - 28.0 °F 38% 30.14 in 10.0 mi WSW 18.4 mph - N/A   Partly Cloudy
11:54 AM 57.0 °F - 30.0 °F 36% 30.12 in 10.0 mi West 19.6 mph 25.3 mph N/A   Partly Cloudy
12:54 PM 57.9 °F - 30.0 °F 35% 30.09 in 10.0 mi WSW 20.7 mph 27.6 mph N/A   Scattered Clouds
1:54 PM 60.1 °F - 28.9 °F 31% 30.09 in 10.0 mi West 18.4 mph 27.6 mph N/A   Scattered Clouds
2:54 PM 57.9 °F - 30.9 °F 36% 30.11 in 10.0 mi West 20.7 mph 28.8 mph N/A   Mostly Cloudy
3:54 PM 57.0 °F - 28.9 °F 34% 30.13 in 10.0 mi WNW 20.7 mph 26.5 mph N/A   Mostly Cloudy
4:54 PM 55.9 °F - 28.0 °F 34% 30.16 in 10.0 mi West 11.5 mph 21.9 mph N/A   Scattered Clouds
5:54 PM 55.0 °F - 28.9 °F 37% 30.19 in 10.0 mi North 13.8 mph 19.6 mph N/A   Mostly Cloudy
6:54 PM 50.0 °F - 30.9 °F 48% 30.25 in 10.0 mi North 16.1 mph - N/A   Scattered Clouds
7:54 PM 48.0 °F - 28.9 °F 48% 30.28 in 10.0 mi NNW 11.5 mph - N/A   Partly Cloudy
8:54 PM 46.9 °F - 28.0 °F 48% 30.30 in 10.0 mi NNW 6.9 mph - N/A   Partly Cloudy
9:54 PM 45.0 °F 39.3 °F 21.9 °F 40% 30.33 in 10.0 mi NNW 11.5 mph 20.7 mph N/A   Partly Cloudy
10:54 PM 43.0 °F 37.7 °F 19.9 °F 40% 30.35 in 10.0 mi North 9.2 mph 18.4 mph N/A   Partly Cloudy
11:54 PM 42.1 °F 37.1 °F 21.0 °F 43% 30.36 in 10.0 mi NNW 8.1 mph - N/A   Partly Cloudy